Home   Weather   Kolding   Past weeks

Flag for Denmark Past Weather in Kolding, Denmark — Yesterday and Last 2 Weeks

Now
39 °F

Chilly.


Feels Like: 33 °F
Forecast: 38 / 43 °F
Wind: 9 mph from Southwest

Location: Vamdrup

Current Time: Jan 19, 2017 at 5:54:46 am

Latest Report: Jan 19, 2017 at 5:20 am


Visibility: N/A

Pressure: 30.54 "Hg

Humidity: 100%

Dew Point: 39 °F

Location of KoldingLocation

Past Weather in Kolding — Graph

°F

Kolding Temperature Yesterday

Maximum temperature yesterday: 39 °F (at 11:50 am)
Minimum temperature yesterday: 36 °F (at 12:20 am)
Average temperature yesterday: 37 °F

High & Low Weather Summary for the Past Weeks

 TemperatureHumidityPressure
High43 °F (Jan 4, 4:50 am)100% (Jan 7, 4:50 am)30.74 "Hg (Jan 7, 4:50 am)
Low14 °F (Jan 6, 4:50 am)59% (Jan 6, 12:50 pm)29.12 "Hg (Jan 11, 2:50 pm)
Average33 °F88%30.03 "Hg
* Reported Jan 4 4:50 am — Jan 19 4:20 am, Kolding, Weather by CustomWeather, © 2017

Note: Actual official high and low records may vary slightly from our data, if they occured in-between our weather recording intervals... More about our weather records

Advertising

Kolding Weather History for the Previous 24 Hours

Scroll right to see more
 ConditionsComfort  
Time TempWeatherWind HumidityBarometerVisibility
4:20 am
Thu, Jan 19
41 °FQuite cool.10 mph93%30.57 "HgN/A
3:50 am41 °FQuite cool.10 mph93%30.57 "HgN/A
3:20 am41 °FQuite cool.10 mph93%30.57 "HgN/A
2:50 am41 °FQuite cool.10 mph93%30.57 "HgN/A
2:20 am41 °FQuite cool.10 mph93%30.57 "HgN/A
1:50 am41 °FQuite cool.10 mph93%30.57 "HgN/A
1:20 am39 °FChilly.12 mph100%30.57 "HgN/A
12:50 am39 °FChilly.13 mph100%30.57 "HgN/A
12:20 am39 °FChilly.12 mph100%30.57 "HgN/A
11:50 pm
Wed, Jan 18
39 °FChilly.13 mph100%30.57 "HgN/A
11:20 pm39 °FChilly.12 mph100%30.57 "HgN/A
10:50 pm39 °FChilly.10 mph100%30.57 "HgN/A
10:20 pm39 °FChilly.10 mph93%30.57 "HgN/A
9:50 pm39 °FChilly.12 mph93%30.57 "HgN/A
9:20 pm37 °FChilly.12 mph100%30.57 "HgN/A
8:50 pm37 °FChilly.12 mph100%30.60 "HgN/A
8:20 pm37 °FChilly.10 mph100%30.60 "HgN/A
7:50 pm37 °FChilly.12 mph100%30.57 "HgN/A
7:20 pm37 °FChilly.10 mph93%30.60 "HgN/A
6:50 pm37 °FChilly.10 mph93%30.60 "HgN/A
6:20 pm37 °FChilly.10 mph100%30.60 "HgN/A
5:50 pm37 °FChilly.10 mph100%30.60 "HgN/A
5:20 pm37 °FChilly.10 mph93%30.60 "HgN/A
4:50 pm39 °FPassing clouds.10 mph87%30.60 "Hg4 mi
3:50 pm39 °FPartly sunny.13 mph87%30.60 "HgN/A
2:50 pm39 °FDrizzle. Partly sunny.17 mph87%30.60 "HgN/A
1:50 pm39 °FBroken clouds.16 mph87%30.60 "HgN/A
12:50 pm39 °FBroken clouds.17 mph87%30.60 "HgN/A
11:50 am39 °FPartly sunny.15 mph87%30.63 "Hg5 mi
11:20 am37 °FPartly sunny.14 mph93%30.63 "Hg4 mi
10:50 am37 °FPartly sunny.14 mph93%30.63 "Hg4 mi
10:20 am37 °FPartly sunny.13 mph93%30.63 "Hg4 mi
9:50 am37 °FPartly sunny.14 mph87%30.63 "Hg4 mi
8:50 am36 °FOvercast.14 mph93%30.60 "Hg4 mi
8:20 am36 °FOvercast.12 mph93%30.60 "Hg4 mi
7:50 am36 °FChilly.12 mph93%30.60 "HgN/A
7:20 am36 °FChilly.12 mph93%30.60 "HgN/A
6:50 am36 °FChilly.13 mph87%30.60 "HgN/A
6:20 am36 °FChilly.12 mph87%30.60 "HgN/A
5:50 am36 °FChilly.13 mph87%30.60 "HgN/A
5:20 am36 °FChilly.12 mph87%30.60 "HgN/A
Weather by CustomWeather, © 2017

See weather overviewHow to use our weather pages